Regional Weather Roundup
Issued by NWS

Home | Current Version | Previous Version | Text Only | Print | Product List | Glossary Off
Versions: 1 2 3 4 5 6 7 8 9 10 11 12 13 14 15 16 17 18 19 20 21 22 23 24 25 26 27 28 29 30 31 32 33 34 35 36 37 38 39 40 41 42 43 44 45 46 47 48 49 50

000
ASUS45 KABQ 251210
RWRNM
NEW MEXICO REGIONAL WEATHER ROUNDUP
NATIONAL WEATHER SERVICE ALBUQUERQUE NM
600 AM MDT MON MAY 25 2015

NOTE: "FAIR" MEANS FEW OR NO CLOUDS BELOW 12,000 FEET AGL WITH NO
       SIGNIFICANT WEATHER OR OBSTRUCTIONS TO VISION.

      THIS PRODUCT IS RELEASED AS TWO VERSIONS.  ONE VERSION NEAR
      THE TOP OF THE HOUR CONTAINING PRELIMINARY DATA FROM ALBUQUERQUE
      AND OTHER STATIONS.  A FINAL VERSION WITH ADDITIONAL DATA IS
      ISSUED ABOUT 10 MINUTES AFTER THE HOUR.

NMZ501-503-504-510>518-251300-
NORTHWEST PLATEAU/NORTHCENTRAL MOUNTAINS

CITY           SKY/WX    TMP DP  RH WIND       PRES   REMARKS
FARMINGTON     PTCLDY    45  42  89 E7        29.97S
6HR MIN TEMP:  45; 6HR MAX TEMP:  50;

LOS ALAMOS     PTCLDY    44  36  72 CALM      30.04R
SANTA FE       CLEAR     43  38  82 CALM      29.99S
6HR MIN TEMP:  40; 6HR MAX TEMP:  51; 6HR PCP: TRACE;

TAOS           CLOUDY    43  32  65 CALM      30.03S
ANGEL FIRE     FAIR      38  35  87 S6        30.03F WCI  34

$$
NMZ402-403-502-505>509-251300-
WESTCENTRAL MOUNTAINS/SOUTHWEST MOUNTAINS

CITY           SKY/WX    TMP DP  RH WIND       PRES   REMARKS
GALLUP         CLEAR     42  37  82 S7        30.04S
6HR MIN TEMP:  39; 6HR MAX TEMP:  47;

GRANTS         CLEAR     34  33  95 CALM      30.06S
SILVER CITY    CLEAR     45  30  57 N12       30.04S

$$
NMZ407-409-411-412-251300-
SOUTHERN DESERTS

CITY           SKY/WX    TMP DP  RH WIND       PRES   REMARKS
LORDSBURG      FAIR      45  28  53 CALM      30.00R
DEMING         CLEAR     48  31  51 SE5       30.00R
6HR MIN TEMP:  47; 6HR MAX TEMP:  64;

LAS CRUCES     CLEAR     49  32  53 NW6       29.99S
HOLLOMAN AFB   CLEAR     49  36  61 CALM      29.94R
ALAMOGORDO     CLEAR     46  32  57 SE7       29.96R
T OR C         CLEAR     53  35  50 NW8       29.99R
6HR MIN TEMP:  53; 6HR MAX TEMP:  60;


$$
NMZ519>523-251300-
CENTRAL VALLEYS/CENTRAL HIGHLANDS

CITY           SKY/WX    TMP DP  RH WIND       PRES   REMARKS
ALBUQUERQUE    PTCLDY    48  45  89 SE6       30.00R
6HR MIN TEMP:  48; 6HR MAX TEMP:  55;

DOUBLE EAGLE   PTCLDY    45  41  87 SW5       30.00S
MORIARTY ARPT  FAIR      43  38  82 W8        30.01S
6HR MIN TEMP:  42; 6HR MAX TEMP:  50;

CLINES CORNERS CLEAR     41  38  89 NW14      29.98R
6HR MIN TEMP:  41; 6HR MAX TEMP:  48;

BELEN          FAIR      46  41  84 SW8       30.00R
6HR MIN TEMP:  45; 6HR MAX TEMP:  55;

SOCORRO        FAIR      50  37  61 CALM      29.99R
6HR MIN TEMP:  49; 6HR MAX TEMP:  59;


$$
NMZ524>526-539-540-251300-
SOUTHCENTRAL MOUNTAINS

CITY           SKY/WX    TMP DP  RH WIND       PRES   REMARKS
RUIDOSO        CLEAR     45  32  61 NW9       30.06S

$$
NMZ527>531-251300-
NORTHEAST HIGHLANDS/NORTHEAST PLAINS

CITY           SKY/WX    TMP DP  RH WIND       PRES   REMARKS
LAS VEGAS      PTCLDY    38  32  79 CALM      29.94F
6HR MIN TEMP:  38; 6HR MAX TEMP:  48;

RATON          MOCLDY    38  35  89 NE7       29.91S WCI  33
6HR MIN TEMP:  37; 6HR MAX TEMP:  48;

CLAYTON        CLEAR     41  36  82 CALM      29.87R
6HR MIN TEMP:  41; 6HR MAX TEMP:  51;


$$
NMZ532>537-251300-
EASTCENTRAL PLAINS

CITY           SKY/WX    TMP DP  RH WIND       PRES   REMARKS
TUCUMCARI      CLEAR     49  43  80 W6        29.86S
6HR MIN TEMP:  49; 6HR MAX TEMP:  59;

CANNON AFB     PTCLDY    48  44  85 SW6       29.90R
6HR MIN TEMP:  48; 6HR MAX TEMP:  60;

CLOVIS AIRPORT PTCLDY    48  41  76 W5        29.90F

$$
NMZ028-029-538-251300-
SOUTHEAST PLAINS

CITY           SKY/WX    TMP DP  RH WIND       PRES   REMARKS
ROSWELL        MOCLDY    57  40  52 NW6       29.90F
6HR MIN TEMP:  57; 6HR MAX TEMP:  67;

ARTESIA        CLOUDY    61  36  39 CALM      29.90S
CARLSBAD       CLOUDY    66  35  31 N8        29.88R
6HR MIN TEMP:  59; 6HR MAX TEMP:  78;

HOBBS          MOCLDY    63  45  51 W7        29.90F


$$



USA.gov is the U.S. government's official web portal to all federal, state and local government web resources and services.